Showing default

BLACKJACK ACES-2, 56955

Orbit data source: Space-Track

BLACKJACK ACES-2, 56955 is a payload satellite owned by DARPA (US) in SSO that was launched on Mon, 12 Jun 2023 UTC via an FALCON 9 launch vehicle from the Air Force Western Test Range (AFWTR). Payload-class satellites include a variety of spacecraft equipped with specific instruments for various scientific and technological missions. These include communications satellites like Starlink; space stations such as the ISS; scientific satellites like the Hubble; Earth observation satellites from companies like Planet Labs, Umbra, and HawkEye 360; GPS; miniature CubeSats for education and research; and military/defense satellites.

Loading next visibility...
Identifier
56955, 2023-084Z
Orbit
SSO
Country
Flag of USUS
Related business
Manufacturer
BLCAN/LMSS
Mission
Operational Defense Communications
Bus & Motor
X-SAT, Unknown motor
Mass
~200 kg wet, ~200 kg dry
Launch date (UTC)
2023-06-12 (3 years ago)
Launch vehicle
FALCON 9
Launch site
Air Force Western Test Range (AFWTR)
Object type
Payload
Rocket body
Debris
Shape & HBR
Box, 3.6 m
Radar Cross Section
0.875 m², Large (>1 m²)

Expand to show TLE details & history
Last TLE update: 17 hours ago

TLE from 17 hours ago
0 BLACKJACK ACES-2
1 56955U 23084Z   26062.82518708  .00014221  00000-0  65239-3 0  9990
2 56955  97.6030 197.3672 0001741  55.7522 304.3877 15.20543517151182
Epoch: 2026-03-03T19:48Z
TLE epoch observation values (Epoch: 2026-03-03T19:48:16.163Z)
Latitude
-0.0001°
Longitude
98.70118°
Altitude
506.609 km
Speed
7.611 km/s
True Right ascension
13h 09m 28s
True Declination
0° 00' 00"
Sunlit
Object was in full shadow at epoch
Visualization orbit readout
Latitude
Unknown
Longitude
Unknown
Altitude
Unknown
Speed
Unknown
Apparent Right ascension
Unknown
Apparent Declination
Unknown
Sunlit
N/A
Visualization observer readout
Local Sidereal Time
16:34:16
Azimuth
Unknown
Elevation
Unknown
Doppler factor
Unknown
Orbital elements
Apogee altitude
502.371 km
Perigee altitude
499.976 km
Semi-major axis
6,879.311 km
Eccentricity
0.00017
Inclination
97.603°
RAAN
197.3672°
Arg. of periapsis
55.7522°
True anomaly
304.37123°
Mean anomaly
304.3877°
Eccentric anomaly
304.37947°
Mean motion
3.80387 °/min
Orbital period
94.64 mins
BSTAR
0.00065239
Loading maneuver chart data...
Computing Atmospheric mass density...
Loading historical data...
Loading historical data...
Loading historical data...
Loading historical data...
Loading historical data...
Loading historical data...
Loading historical data...

Documentation

Showing up to 5 results
|